Opa Locka, FL

11:59 AM EDT on May 26, 2017 (GMT -0400)
Opa Locka

Weather History for KOPF - September, 2013

Change the Weather History Date:

Friday, September 13, 2013

  Actual Average Record
Temperature  
Mean Temperature 83 °F -  
Max Temperature 91 °F 89 °F 94 °F (1963)
Min Temperature 75 °F 74 °F 64 °F (1967)
Cooling Degree Days 18    
Growing Degree Days 33 (Base 50)    
Moisture  
Dew Point 74 °F    
Average Humidity 75    
Maximum Humidity 97    
Minimum Humidity 48    
Precipitation  
Precipitation 0.01 in - - ()
Sea Level Pressure  
Sea Level Pressure 29.88 in    
Wind  
Wind Speed 3 mph (ESE)    
Max Wind Speed 13 mph    
Max Gust Speed -    
Visibility 10 miles    
Events      
Averages and records for this station are not official NWS values.
T = Trace of Precipitation, MM = Missing Value Source: NWS Daily Summary

Daily Weather History Graph

Daily Weather History Graph

Search for Another Location

Airport or City:

Trip Planner

Search our weather history database for the weather conditions in past years. The results will help you decide how hot, cold, wet, or windy it might be!

Date:

Astronomy

Sep. 13, 2013 Rise Set
Actual Time 7:06 AM EDT 7:27 PM EDT
Civil Twilight 6:43 AM EDT 7:50 PM EDT
Nautical Twilight 6:16 AM EDT 8:17 PM EDT
Astronomical Twilight 5:48 AM EDT 8:44 PM EDT
Moon 2:51 PM EDT (9/13) 12:59 AM EDT (9/13)
Length of Visible Light 13h 07m
Length of Day
12h 21m
First Quarter, 61% of the Moon is Illuminated
Sep 13
First Quarter
Sep 19
Full
Sep 26
Last Quarter
Oct 4
New
Oct 11
First Quarter

Hourly Weather History & Observations

Time (EDT) Temp. Heat Index Dew Point Humidity Pressure Visibility Wind Dir Wind Speed Gust Speed Precip Events Conditions
12:53 AM 80.1 °F 85.4 °F 75.9 °F 87% 29.91 in 10.0 mi Calm Calm - N/A   Clear
1:53 AM 79.0 °F - 75.0 °F 88% 29.90 in 10.0 mi WNW 3.5 mph - N/A   Clear
2:53 AM 78.1 °F - 75.9 °F 93% 29.88 in 10.0 mi Calm Calm - N/A   Clear
3:53 AM 78.1 °F - 75.9 °F 93% 29.88 in 10.0 mi North 5.8 mph - N/A   Clear
4:53 AM 77.0 °F - 75.0 °F 94% 29.88 in 10.0 mi NNE 3.5 mph - N/A   Clear
5:53 AM 75.9 °F - 75.0 °F 97% 29.88 in 10.0 mi Calm Calm - N/A   Clear
6:53 AM 75.0 °F - 73.9 °F 96% 29.89 in 10.0 mi Calm Calm - N/A   Clear
7:53 AM 77.0 °F - 75.9 °F 96% 29.91 in 10.0 mi Calm Calm - 0.01 in   Clear
8:53 AM 81.0 °F 87.3 °F 75.9 °F 85% 29.91 in 10.0 mi Calm Calm - N/A   Clear
9:53 AM 84.9 °F 92.1 °F 73.9 °F 69% 29.91 in 10.0 mi Calm Calm - N/A   Clear
10:53 AM 84.9 °F 91.4 °F 73.0 °F 67% 29.91 in 10.0 mi Calm Calm - N/A   Scattered Clouds
11:53 AM 88.0 °F 95.6 °F 73.0 °F 61% 29.91 in 10.0 mi Variable 3.5 mph - N/A   Scattered Clouds
12:53 PM 90.0 °F 96.4 °F 71.1 °F 54% 29.89 in 10.0 mi WNW 6.9 mph - N/A   Clear
1:53 PM 91.0 °F 95.6 °F 69.1 °F 48% 29.87 in 10.0 mi Calm Calm - N/A   Clear
2:53 PM 90.0 °F 99.0 °F 73.9 °F 59% 29.85 in 10.0 mi SE 8.1 mph - N/A   Mostly Cloudy
3:53 PM 90.0 °F 96.9 °F 72.0 °F 55% 29.83 in 10.0 mi SE 12.7 mph - N/A   Partly Cloudy
4:53 PM 89.1 °F 95.0 °F 71.1 °F 55% 29.82 in 10.0 mi ESE 10.4 mph - N/A   Mostly Cloudy
5:53 PM 87.1 °F 93.6 °F 72.0 °F 61% 29.82 in 10.0 mi ESE 10.4 mph - N/A   Clear
6:53 PM 84.9 °F 90.1 °F 71.1 °F 63% 29.83 in 10.0 mi SE 11.5 mph - N/A   Clear
7:53 PM 82.9 °F 88.0 °F 72.0 °F 69% 29.84 in 10.0 mi SE 6.9 mph - N/A   Clear
8:53 PM 82.9 °F 90.2 °F 75.0 °F 77% 29.86 in 10.0 mi ESE 6.9 mph - N/A   Clear
9:53 PM 82.9 °F 90.2 °F 75.0 °F 77% 29.88 in 10.0 mi SE 5.8 mph - N/A   Mostly Cloudy
10:53 PM 82.0 °F 87.9 °F 73.9 °F 76% 29.88 in 10.0 mi SSE 4.6 mph - N/A   Clear
11:53 PM 81.0 °F 86.2 °F 73.9 °F 79% 29.88 in 10.0 mi SSE 3.5 mph - N/A   Clear